New York JFK, NY

8:55 PM EST on November 20, 2019 (GMT -0500)
Kennedy International

Weather History for KJFK - October, 2019

Change the Weather History Date:

Wednesday, October 23, 2019

  Actual Average Record
Temperature  
Mean Temperature 62 °F 55 °F  
Max Temperature 66 °F 62 °F 77 °F (1978)
Min Temperature 55 °F 47 °F 33 °F (1969)
Degree Days  
Heating Degree Days 4 10  
Month to date heating degree days 133 166  
Since 1 July heating degree days 144 205  
Cooling Degree Days 0 0  
Month to date cooling degree days 23 12  
Year to date cooling degree days 1152 1003  
Growing Degree Days 12 (Base 50)    
Moisture  
Dew Point 48 °F    
Average Humidity 65    
Maximum Humidity 100    
Minimum Humidity 31    
Precipitation  
Precipitation 0.13 in 0.11 in 1.55 in (1990)
Month to date precipitation 3.43 2.74  
Year to date precipitation 41.18 35.20  
Snow  
Snow 0.00 in 0.00 in - ()
Month to date snowfall 0.0 0.0  
Since 1 July snowfall 0.0 0.0  
Snow Depth 0.00 in    
Sea Level Pressure  
Sea Level Pressure 29.93 in    
Wind  
Wind Speed 12 mph ()    
Max Wind Speed 23 mph    
Max Gust Speed 30 mph    
Visibility 9.6 miles    
Events Rain    
T = Trace of Precipitation, MM = Missing Value Source: Averaged Metar Reports

Daily Weather History Graph

Daily Weather History Graph

Search for Another Location

Airport or City:

Astronomy

Oct. 23, 2019 Rise Set
Actual Time 7:14 AM EDT 6:03 PM EDT
Civil Twilight 6:46 AM EDT 6:31 PM EDT
Nautical Twilight 6:14 AM EDT 7:03 PM EDT
Astronomical Twilight 5:43 AM EDT 7:34 PM EDT
Moon 1:27 AM EDT (10/23) 3:54 PM EDT (10/23)
Length of Visible Light 11h 44m
Length of Day
10h 48m
Waning Crescent, 27% of the Moon is Illuminated
Oct 23
Waning Crescent
Oct 27
New
Nov 4
First Quarter
Nov 12
Full
Nov 19
Last Quarter

Hourly Weather History & Observations

Time (EDT) Temp. Dew Point Humidity Pressure Visibility Wind Dir Wind Speed Gust Speed Precip Events Conditions
12:51 AM 64.0 °F 64.0 °F 100% 29.77 in 3.0 mi SE 10.4 mph - 0.07 in Rain Light Rain
1:45 AM 62.6 °F 62.6 °F 100% 29.76 in 9.0 mi SSW 8.1 mph - 0.05 in   Overcast
1:51 AM 63.0 °F 63.0 °F 100% 29.76 in 10.0 mi SSW 8.1 mph - 0.05 in   Overcast
2:28 AM 61.0 °F 61.0 °F 100% 29.77 in 6.0 mi WNW 17.3 mph - 0.01 in   Overcast
2:51 AM 61.0 °F 61.0 °F 100% 29.76 in 10.0 mi NW 17.3 mph - 0.01 in   Overcast
3:01 AM 61.0 °F 61.0 °F 100% 29.76 in 10.0 mi NW 13.8 mph - N/A   Mostly Cloudy
3:51 AM 60.1 °F 57.9 °F 93% 29.78 in 10.0 mi NW 10.4 mph - N/A   Mostly Cloudy
4:51 AM 59.0 °F 57.0 °F 93% 29.79 in 10.0 mi NW 10.4 mph - N/A   Scattered Clouds
5:51 AM 59.0 °F 55.9 °F 90% 29.81 in 10.0 mi WNW 10.4 mph - N/A   Scattered Clouds
6:51 AM 59.0 °F 54.0 °F 83% 29.84 in 10.0 mi WNW 13.8 mph - N/A   Partly Cloudy
7:51 AM 57.9 °F 53.1 °F 84% 29.88 in 10.0 mi WNW 10.4 mph - N/A   Partly Cloudy
8:51 AM 60.1 °F 51.1 °F 72% 29.91 in 10.0 mi WNW 15.0 mph - N/A   Partly Cloudy
9:51 AM 63.0 °F 48.0 °F 58% 29.93 in 10.0 mi WNW 15.0 mph - N/A   Partly Cloudy
10:51 AM 64.0 °F 48.9 °F 58% 29.94 in 10.0 mi West 15.0 mph - N/A   Partly Cloudy
11:51 AM 64.9 °F 43.0 °F 45% 29.94 in 10.0 mi WNW 16.1 mph 26.5 mph N/A   Partly Cloudy
12:51 PM 66.0 °F 39.9 °F 38% 29.95 in 10.0 mi West 18.4 mph 26.5 mph N/A   Scattered Clouds
1:51 PM 66.0 °F 37.9 °F 36% 29.95 in 10.0 mi West 18.4 mph 28.8 mph N/A   Partly Cloudy
2:51 PM 66.9 °F 37.9 °F 34% 29.96 in 10.0 mi West 16.1 mph 25.3 mph N/A   Partly Cloudy
3:51 PM 66.0 °F 35.1 °F 32% 29.97 in 10.0 mi West 23.0 mph 27.6 mph N/A   Partly Cloudy
4:51 PM 64.9 °F 33.1 °F 31% 29.99 in 10.0 mi West 17.3 mph 25.3 mph N/A   Partly Cloudy
5:51 PM 63.0 °F 35.1 °F 35% 30.02 in 10.0 mi West 15.0 mph - N/A   Partly Cloudy
6:51 PM 61.0 °F 37.9 °F 42% 30.06 in 10.0 mi West 15.0 mph - N/A   Partly Cloudy
7:51 PM 61.0 °F 39.9 °F 46% 30.11 in 10.0 mi WSW 13.8 mph - N/A   Clear
8:51 PM 60.1 °F 41.0 °F 49% 30.13 in 10.0 mi West 11.5 mph - N/A   Clear
9:51 PM 57.9 °F 39.0 °F 49% 30.16 in 10.0 mi West 10.4 mph - N/A   Clear
10:51 PM 57.0 °F 37.9 °F 49% 30.17 in 10.0 mi West 9.2 mph - N/A   Clear
11:51 PM 55.9 °F 37.9 °F 51% 30.18 in 10.0 mi West 9.2 mph - N/A   Clear